Time,TemperatureF,DewpointF,PressureIn,WindDirection,WindDirectionDegrees,WindSpeedMPH,WindSpeedGustMPH,Humidity,HourlyPrecipIn,Conditions,Clouds,dailyrainin,SoftwareType,DateUTC
2013-05-09 00:01:00,57.7,50.5,30.02,SE,135,0.0,0.0,77,0.00,,,0.00,WUHU21623XXSP,2013-05-09 04:01:00,
2013-05-09 00:06:00,57.7,50.2,30.02,SE,135,0.0,0.0,76,0.00,,,0.00,WUHU21623XXSP,2013-05-09 04:06:00,
2013-05-09 00:11:00,57.4,50.2,30.02,SE,135,0.0,0.0,77,0.00,,,0.00,WUHU21623XXSP,2013-05-09 04:11:00,
2013-05-09 00:16:00,57.4,50.2,30.02,SE,135,0.0,0.0,77,0.00,,,0.00,WUHU21623XXSP,2013-05-09 04:16:00,
2013-05-09 00:21:00,57.4,50.5,30.02,SE,135,0.0,0.0,78,0.00,,,0.00,WUHU21623XXSP,2013-05-09 04:21:00,
2013-05-09 00:26:00,57.4,50.5,30.02,SE,135,0.0,0.0,78,0.00,,,0.00,WUHU21623XXSP,2013-05-09 04:26:00,
2013-05-09 00:31:00,57.0,50.2,30.03,SE,135,0.0,0.0,78,0.00,,,0.00,WUHU21623XXSP,2013-05-09 04:31:00,
2013-05-09 00:36:00,57.0,50.2,30.03,SE,135,0.0,0.0,78,0.00,,,0.00,WUHU21623XXSP,2013-05-09 04:36:00,
2013-05-09 00:41:00,57.0,50.5,30.02,SE,135,0.0,0.0,79,0.00,,,0.00,WUHU21623XXSP,2013-05-09 04:41:00,
2013-05-09 00:46:00,57.0,50.5,30.02,SE,135,0.0,0.0,79,0.00,,,0.00,WUHU21623XXSP,2013-05-09 04:46:00,
2013-05-09 00:51:00,57.0,50.5,30.01,SE,135,0.0,0.0,79,0.00,,,0.00,WUHU21623XXSP,2013-05-09 04:51:00,
2013-05-09 00:56:00,56.8,50.4,30.02,SE,135,0.0,0.0,79,0.00,,,0.00,WUHU21623XXSP,2013-05-09 04:56:00,
2013-05-09 01:01:00,56.8,50.4,30.02,SE,135,0.0,0.0,79,0.00,,,0.00,WUHU21623XXSP,2013-05-09 05:01:00,
2013-05-09 01:06:00,56.5,50.0,30.02,SE,135,0.0,0.0,79,0.00,,,0.00,WUHU21623XXSP,2013-05-09 05:06:00,
2013-05-09 01:11:00,56.3,50.2,30.01,SE,135,0.0,0.0,80,0.00,,,0.00,WUHU21623XXSP,2013-05-09 05:11:00,
2013-05-09 01:16:00,56.3,50.2,30.01,SE,135,0.0,0.0,80,0.00,,,0.00,WUHU21623XXSP,2013-05-09 05:16:00,
2013-05-09 01:21:00,56.1,50.0,30.01,SE,135,0.0,0.0,80,0.00,,,0.00,WUHU21623XXSP,2013-05-09 05:21:00,
2013-05-09 01:26:00,56.1,50.3,30.00,SE,135,0.0,0.0,81,0.00,,,0.00,WUHU21623XXSP,2013-05-09 05:26:00,
2013-05-09 01:31:00,55.9,50.1,30.00,SE,135,0.0,0.0,81,0.00,,,0.00,WUHU21623XXSP,2013-05-09 05:31:00,
2013-05-09 01:36:00,55.9,50.5,30.00,SE,135,0.0,0.0,82,0.00,,,0.00,WUHU21623XXSP,2013-05-09 05:36:00,
2013-05-09 01:41:00,55.9,50.5,30.00,SE,135,0.0,0.0,82,0.00,,,0.00,WUHU21623XXSP,2013-05-09 05:41:00,
2013-05-09 01:46:00,55.9,50.5,30.00,SE,135,0.0,0.0,82,0.00,,,0.00,WUHU21623XXSP,2013-05-09 05:46:00,
2013-05-09 01:51:00,55.9,50.1,30.00,SE,135,0.0,0.0,81,0.00,,,0.00,WUHU21623XXSP,2013-05-09 05:51:00,
2013-05-09 01:56:00,55.8,50.0,30.00,SE,135,0.0,0.0,81,0.00,,,0.00,WUHU21623XXSP,2013-05-09 05:56:00,
2013-05-09 02:01:00,55.8,50.0,30.00,SE,135,0.0,0.0,81,0.00,,,0.00,WUHU21623XXSP,2013-05-09 06:01:00,
2013-05-09 02:06:00,55.8,50.0,30.00,SE,135,0.0,0.0,81,0.00,,,0.00,WUHU21623XXSP,2013-05-09 06:06:00,
2013-05-09 02:11:00,55.6,49.8,30.00,SE,135,0.0,0.0,81,0.00,,,0.00,WUHU21623XXSP,2013-05-09 06:11:00,
2013-05-09 02:16:00,55.4,49.6,30.00,SE,135,0.0,0.0,81,0.00,,,0.00,WUHU21623XXSP,2013-05-09 06:16:00,
2013-05-09 02:21:00,55.4,49.6,30.00,SE,135,0.0,0.0,81,0.00,,,0.00,WUHU21623XXSP,2013-05-09 06:21:00,
2013-05-09 02:26:00,55.2,49.4,29.99,SE,135,0.0,0.0,81,0.00,,,0.00,WUHU21623XXSP,2013-05-09 06:26:00,
2013-05-09 02:31:00,55.2,49.4,29.99,SE,135,0.0,0.0,81,0.00,,,0.00,WUHU21623XXSP,2013-05-09 06:31:00,
2013-05-09 02:36:00,55.0,49.3,29.99,SE,135,0.0,0.0,81,0.00,,,0.00,WUHU21623XXSP,2013-05-09 06:36:00,
2013-05-09 02:41:00,54.9,49.1,29.99,SE,135,0.0,0.0,81,0.00,,,0.00,WUHU21623XXSP,2013-05-09 06:41:00,
2013-05-09 02:46:00,54.7,48.9,29.99,SE,135,0.0,0.0,81,0.00,,,0.00,WUHU21623XXSP,2013-05-09 06:46:00,
2013-05-09 02:51:00,54.7,48.9,29.99,SE,135,0.0,0.0,81,0.00,,,0.00,WUHU21623XXSP,2013-05-09 06:51:00,
2013-05-09 02:56:00,54.5,48.8,29.99,SE,135,0.0,0.0,81,0.00,,,0.00,WUHU21623XXSP,2013-05-09 06:56:00,
2013-05-09 03:01:00,54.3,48.6,29.98,SE,135,0.0,0.0,81,0.00,,,0.00,WUHU21623XXSP,2013-05-09 07:01:00,
2013-05-09 03:06:00,54.3,48.6,29.98,SE,135,0.0,0.0,81,0.00,,,0.00,WUHU21623XXSP,2013-05-09 07:06:00,
2013-05-09 03:11:00,54.1,48.5,29.98,SE,135,0.0,0.0,81,0.00,,,0.00,WUHU21623XXSP,2013-05-09 07:11:00,
2013-05-09 03:16:00,54.1,48.5,29.98,SE,135,0.0,0.0,81,0.00,,,0.00,WUHU21623XXSP,2013-05-09 07:16:00,
2013-05-09 03:21:00,54.1,48.5,29.98,SE,135,0.0,0.0,81,0.00,,,0.00,WUHU21623XXSP,2013-05-09 07:21:00,
2013-05-09 03:26:00,54.1,48.5,29.98,SE,135,0.0,0.0,81,0.00,,,0.00,WUHU21623XXSP,2013-05-09 07:26:00,
2013-05-09 03:31:00,54.1,48.5,29.99,SE,135,0.0,0.0,81,0.00,,,0.00,WUHU21623XXSP,2013-05-09 07:31:00,
2013-05-09 03:36:00,54.0,48.3,29.99,SE,135,0.0,0.0,81,0.00,,,0.00,WUHU21623XXSP,2013-05-09 07:36:00,
2013-05-09 03:41:00,54.0,48.3,29.99,SE,135,0.0,0.0,81,0.00,,,0.00,WUHU21623XXSP,2013-05-09 07:41:00,
2013-05-09 03:46:00,53.8,48.1,29.98,SE,135,0.0,0.0,81,0.00,,,0.00,WUHU21623XXSP,2013-05-09 07:46:00,
2013-05-09 03:51:00,53.8,48.1,29.98,SE,135,0.0,0.0,81,0.00,,,0.00,WUHU21623XXSP,2013-05-09 07:51:00,
2013-05-09 03:56:00,53.4,47.8,29.99,SE,135,0.0,0.0,81,0.00,,,0.00,WUHU21623XXSP,2013-05-09 07:56:00,
2013-05-09 04:01:00,53.4,47.8,29.99,SE,135,0.0,0.0,81,0.00,,,0.00,WUHU21623XXSP,2013-05-09 08:01:00,
2013-05-09 04:06:00,53.4,47.8,29.99,SE,135,0.0,0.0,81,0.00,,,0.00,WUHU21623XXSP,2013-05-09 08:06:00,
2013-05-09 04:11:00,53.4,48.1,29.99,SE,135,0.0,0.0,82,0.00,,,0.00,WUHU21623XXSP,2013-05-09 08:11:00,
2013-05-09 04:16:00,53.2,47.9,29.99,SE,135,0.0,0.0,82,0.00,,,0.00,WUHU21623XXSP,2013-05-09 08:16:00,
2013-05-09 04:21:00,53.2,47.9,29.99,SE,135,0.0,0.0,82,0.00,,,0.00,WUHU21623XXSP,2013-05-09 08:21:00,
2013-05-09 04:26:00,53.2,47.9,29.99,SE,135,0.0,0.0,82,0.00,,,0.00,WUHU21623XXSP,2013-05-09 08:26:00,
2013-05-09 04:31:00,52.9,47.6,29.99,SE,135,0.0,0.0,82,0.00,,,0.00,WUHU21623XXSP,2013-05-09 08:31:00,
2013-05-09 04:36:00,52.9,47.9,29.99,SE,135,0.0,0.0,83,0.00,,,0.00,WUHU21623XXSP,2013-05-09 08:36:00,
2013-05-09 04:41:00,52.9,47.9,29.99,SE,135,0.0,0.0,83,0.00,,,0.00,WUHU21623XXSP,2013-05-09 08:41:00,
2013-05-09 04:46:00,52.7,47.7,29.99,SE,135,0.0,0.0,83,0.00,,,0.00,WUHU21623XXSP,2013-05-09 08:46:00,
2013-05-09 04:51:00,52.7,47.7,29.99,SE,135,0.0,0.0,83,0.00,,,0.00,WUHU21623XXSP,2013-05-09 08:51:00,
2013-05-09 04:56:00,52.7,47.7,29.99,SE,135,0.0,0.0,83,0.00,,,0.00,WUHU21623XXSP,2013-05-09 08:56:00,
2013-05-09 05:01:00,52.5,47.5,29.99,SE,135,0.0,0.0,83,0.00,,,0.00,WUHU21623XXSP,2013-05-09 09:01:00,
2013-05-09 05:06:00,52.5,47.5,29.99,SE,135,0.0,0.0,83,0.00,,,0.00,WUHU21623XXSP,2013-05-09 09:06:00,
2013-05-09 05:11:00,52.5,47.5,29.99,SE,135,0.0,0.0,83,0.00,,,0.00,WUHU21623XXSP,2013-05-09 09:11:00,
2013-05-09 05:16:00,52.5,47.5,29.99,SE,135,0.0,0.0,83,0.00,,,0.00,WUHU21623XXSP,2013-05-09 09:16:00,
2013-05-09 05:21:00,52.5,47.5,29.99,SE,135,0.0,0.0,83,0.00,,,0.00,WUHU21623XXSP,2013-05-09 09:21:00,
2013-05-09 05:26:00,52.5,47.5,29.99,SE,135,0.0,0.0,83,0.00,,,0.00,WUHU21623XXSP,2013-05-09 09:26:00,
2013-05-09 05:31:00,52.5,47.5,29.99,SE,135,0.0,0.0,83,0.00,,,0.00,WUHU21623XXSP,2013-05-09 09:31:00,
2013-05-09 05:36:00,52.3,47.3,29.99,SE,135,0.0,0.0,83,0.00,,,0.00,WUHU21623XXSP,2013-05-09 09:36:00,
2013-05-09 05:41:00,52.3,47.6,29.99,SE,135,0.0,0.0,84,0.00,,,0.00,WUHU21623XXSP,2013-05-09 09:41:00,
2013-05-09 05:46:00,52.2,47.4,29.99,SE,135,0.0,0.0,84,0.00,,,0.00,WUHU21623XXSP,2013-05-09 09:46:00,
2013-05-09 05:51:00,52.3,47.6,29.99,SE,135,0.0,0.0,84,0.00,,,0.00,WUHU21623XXSP,2013-05-09 09:51:00,
2013-05-09 05:56:00,52.3,47.6,29.99,SE,135,0.0,0.0,84,0.00,,,0.00,WUHU21623XXSP,2013-05-09 09:56:00,
2013-05-09 06:01:00,52.3,47.6,30.00,SE,135,0.0,0.0,84,0.00,,,0.00,WUHU21623XXSP,2013-05-09 10:01:00,
2013-05-09 06:06:00,52.3,47.6,30.00,SE,135,0.0,0.0,84,0.00,,,0.00,WUHU21623XXSP,2013-05-09 10:06:00,
2013-05-09 06:11:00,52.3,47.6,30.00,SE,135,0.0,0.0,84,0.00,,,0.00,WUHU21623XXSP,2013-05-09 10:11:00,
2013-05-09 06:16:00,52.3,47.6,30.00,SE,135,0.0,0.0,84,0.00,,,0.00,WUHU21623XXSP,2013-05-09 10:16:00,
2013-05-09 06:21:00,52.3,47.6,30.00,SE,135,0.0,0.0,84,0.00,,,0.00,WUHU21623XXSP,2013-05-09 10:21:00,
2013-05-09 06:26:00,52.3,47.6,30.00,SE,135,0.0,0.0,84,0.00,,,0.00,WUHU21623XXSP,2013-05-09 10:26:00,
2013-05-09 06:31:00,52.3,47.6,30.00,SE,135,0.0,0.0,84,0.00,,,0.00,WUHU21623XXSP,2013-05-09 10:31:00,
2013-05-09 06:36:00,52.3,47.6,30.00,SE,135,0.0,0.0,84,0.00,,,0.00,WUHU21623XXSP,2013-05-09 10:36:00,
2013-05-09 06:41:00,52.2,47.4,30.00,SE,135,0.0,0.0,84,0.00,,,0.00,WUHU21623XXSP,2013-05-09 10:41:00,
2013-05-09 06:46:00,52.2,47.4,30.00,SE,135,0.0,0.0,84,0.00,,,0.00,WUHU21623XXSP,2013-05-09 10:46:00,
2013-05-09 06:51:00,52.2,47.4,30.00,SE,135,0.0,0.0,84,0.00,,,0.00,WUHU21623XXSP,2013-05-09 10:51:00,
2013-05-09 06:56:00,52.2,47.4,30.00,SE,135,0.0,0.0,84,0.00,,,0.00,WUHU21623XXSP,2013-05-09 10:56:00,
2013-05-09 07:01:00,52.2,47.4,30.00,SE,135,0.0,0.0,84,0.00,,,0.00,WUHU21623XXSP,2013-05-09 11:01:00,
2013-05-09 07:06:00,52.3,47.6,30.00,SE,135,0.0,0.0,84,0.00,,,0.00,WUHU21623XXSP,2013-05-09 11:06:00,
2013-05-09 07:11:00,52.3,47.6,30.01,SE,135,0.0,0.0,84,0.00,,,0.00,WUHU21623XXSP,2013-05-09 11:11:00,
2013-05-09 07:16:00,52.3,47.6,30.00,SE,135,0.0,0.0,84,0.00,,,0.00,WUHU21623XXSP,2013-05-09 11:16:00,
2013-05-09 07:21:00,52.3,47.6,30.00,SE,135,0.0,0.0,84,0.00,,,0.00,WUHU21623XXSP,2013-05-09 11:21:00,
2013-05-09 07:26:00,52.5,47.8,30.00,SE,135,0.0,0.0,84,0.00,,,0.00,WUHU21623XXSP,2013-05-09 11:26:00,
2013-05-09 07:31:00,52.7,48.0,30.01,SE,135,0.0,0.0,84,0.00,,,0.00,WUHU21623XXSP,2013-05-09 11:31:00,
2013-05-09 07:36:00,52.9,48.2,30.01,SE,135,0.0,0.0,84,0.00,,,0.00,WUHU21623XXSP,2013-05-09 11:36:00,
2013-05-09 07:41:00,52.9,48.2,30.01,SE,135,0.0,0.0,84,0.00,,,0.00,WUHU21623XXSP,2013-05-09 11:41:00,
2013-05-09 07:46:00,53.4,49.0,30.01,SE,135,0.0,0.0,85,0.00,,,0.00,WUHU21623XXSP,2013-05-09 11:46:00,
2013-05-09 07:51:00,54.0,49.5,30.00,SE,135,0.0,0.0,85,0.00,,,0.00,WUHU21623XXSP,2013-05-09 11:51:00,
2013-05-09 07:56:00,54.3,49.9,30.01,SE,135,0.0,0.0,85,0.00,,,0.00,WUHU21623XXSP,2013-05-09 11:56:00,
2013-05-09 08:01:00,55.0,50.6,30.01,SE,135,0.0,0.0,85,0.00,,,0.00,WUHU21623XXSP,2013-05-09 12:01:00,
2013-05-09 08:06:00,55.2,50.7,30.02,SE,135,0.0,0.0,85,0.00,,,0.00,WUHU21623XXSP,2013-05-09 12:06:00,
2013-05-09 08:11:00,55.6,51.1,30.02,SE,135,0.0,0.0,85,0.00,,,0.00,WUHU21623XXSP,2013-05-09 12:11:00,
2013-05-09 08:16:00,56.3,51.8,30.02,SE,135,0.0,0.0,85,0.00,,,0.00,WUHU21623XXSP,2013-05-09 12:16:00,
2013-05-09 08:21:00,56.5,52.0,30.02,SE,135,0.0,0.0,85,0.00,,,0.00,WUHU21623XXSP,2013-05-09 12:21:00,
2013-05-09 08:26:00,56.8,52.3,30.02,SE,135,0.0,0.0,85,0.00,,,0.00,WUHU21623XXSP,2013-05-09 12:26:00,
2013-05-09 08:31:00,57.4,53.2,30.02,SE,135,0.0,0.0,86,0.00,,,0.00,WUHU21623XXSP,2013-05-09 12:31:00,
2013-05-09 08:36:00,57.7,53.6,30.02,SE,135,0.0,0.0,86,0.00,,,0.00,WUHU21623XXSP,2013-05-09 12:36:00,
2013-05-09 08:41:00,58.1,53.9,30.02,SE,135,0.0,0.0,86,0.00,,,0.00,WUHU21623XXSP,2013-05-09 12:41:00,
2013-05-09 08:46:00,58.6,54.5,30.02,SE,135,0.0,0.0,86,0.00,,,0.00,WUHU21623XXSP,2013-05-09 12:46:00,
2013-05-09 08:51:00,58.8,54.6,30.02,SE,135,0.0,0.0,86,0.00,,,0.00,WUHU21623XXSP,2013-05-09 12:51:00,
2013-05-09 08:56:00,58.8,54.6,30.02,SE,135,0.0,0.0,86,0.00,,,0.00,WUHU21623XXSP,2013-05-09 12:56:00,
2013-05-09 09:01:00,59.5,55.4,30.02,SE,135,0.0,0.0,86,0.00,,,0.00,WUHU21623XXSP,2013-05-09 13:01:00,
2013-05-09 09:06:00,59.7,55.5,30.02,SE,135,0.0,0.0,86,0.00,,,0.00,WUHU21623XXSP,2013-05-09 13:06:00,
2013-05-09 09:11:00,59.9,55.7,30.02,SE,135,0.0,0.0,86,0.00,,,0.00,WUHU21623XXSP,2013-05-09 13:11:00,
2013-05-09 09:16:00,60.4,56.3,30.02,SE,135,0.0,0.0,86,0.00,,,0.00,WUHU21623XXSP,2013-05-09 13:16:00,
2013-05-09 09:21:00,60.4,56.3,30.02,SE,135,0.0,0.0,86,0.00,,,0.00,WUHU21623XXSP,2013-05-09 13:21:00,
2013-05-09 09:26:00,60.6,56.4,30.02,SE,135,0.0,0.0,86,0.00,,,0.00,WUHU21623XXSP,2013-05-09 13:26:00,
2013-05-09 09:31:00,60.6,56.1,30.02,SE,135,0.0,0.0,85,0.00,,,0.00,WUHU21623XXSP,2013-05-09 13:31:00,
2013-05-09 09:36:00,61.2,56.6,30.02,SE,135,0.0,0.0,85,0.00,,,0.00,WUHU21623XXSP,2013-05-09 13:36:00,
2013-05-09 09:41:00,61.5,57.0,30.02,SE,135,0.0,0.0,85,0.00,,,0.00,WUHU21623XXSP,2013-05-09 13:41:00,
2013-05-09 09:46:00,61.9,57.3,30.02,SW,225,0.0,0.0,85,0.00,,,0.00,WUHU21623XXSP,2013-05-09 13:46:00,
2013-05-09 09:51:00,62.4,57.5,30.02,SW,225,0.0,0.0,84,0.00,,,0.00,WUHU21623XXSP,2013-05-09 13:51:00,
2013-05-09 09:56:00,62.8,57.5,30.02,SW,225,0.0,0.0,83,0.00,,,0.00,WUHU21623XXSP,2013-05-09 13:56:00,
2013-05-09 10:01:00,63.0,57.7,30.01,SW,225,0.0,0.0,83,0.00,,,0.00,WUHU21623XXSP,2013-05-09 14:01:00,
2013-05-09 10:06:00,63.3,58.0,30.02,SW,225,0.0,0.0,83,0.00,,,0.00,WUHU21623XXSP,2013-05-09 14:06:00,
2013-05-09 10:11:00,63.5,57.9,30.02,SW,225,0.0,0.0,82,0.00,,,0.00,WUHU21623XXSP,2013-05-09 14:11:00,
2013-05-09 10:15:00,64.0,58.1,30.02,South,180,0.0,0.0,81,0.00,,,0.00,WUHU21623XXSP,2013-05-09 14:15:00,
2013-05-09 10:20:00,64.2,58.3,30.01,SSE,157,0.0,0.0,81,0.00,,,0.00,WUHU21623XXSP,2013-05-09 14:20:00,
2013-05-09 10:25:00,64.8,58.8,30.01,South,180,0.0,0.0,81,0.00,,,0.00,WUHU21623XXSP,2013-05-09 14:25:00,
2013-05-09 10:30:00,65.3,59.0,30.01,South,180,0.0,0.0,80,0.00,,,0.00,WUHU21623XXSP,2013-05-09 14:30:00,
2013-05-09 10:35:00,65.7,59.4,30.01,SW,225,0.0,0.0,80,0.00,,,0.00,WUHU21623XXSP,2013-05-09 14:35:00,
2013-05-09 10:40:00,66.2,59.9,30.02,South,180,0.0,0.0,80,0.00,,,0.00,WUHU21623XXSP,2013-05-09 14:40:00,
2013-05-09 10:45:00,66.7,59.7,30.01,SW,225,0.0,0.0,78,0.00,,,0.00,WUHU21623XXSP,2013-05-09 14:45:00,
2013-05-09 10:50:00,66.9,59.5,30.02,West,270,1.1,1.1,77,0.00,,,0.00,WUHU21623XXSP,2013-05-09 14:50:00,
2013-05-09 10:55:00,67.1,59.7,30.02,SW,225,1.3,1.3,77,0.00,,,0.00,WUHU21623XXSP,2013-05-09 14:55:00,
2013-05-09 11:00:00,67.4,59.7,30.02,South,180,1.3,1.3,76,0.00,,,0.00,WUHU21623XXSP,2013-05-09 15:00:00,
2013-05-09 11:05:00,67.5,59.8,30.02,South,180,0.0,1.3,76,0.00,,,0.00,WUHU21623XXSP,2013-05-09 15:05:00,
2013-05-09 11:10:00,67.5,59.8,30.02,South,180,0.0,0.0,76,0.00,,,0.00,WUHU21623XXSP,2013-05-09 15:10:00,
2013-05-09 11:15:00,67.5,59.5,30.02,WSW,247,0.0,0.0,75,0.00,,,0.00,WUHU21623XXSP,2013-05-09 15:15:00,
2013-05-09 11:20:00,67.4,59.4,30.02,SSE,157,0.0,0.0,75,0.00,,,0.00,WUHU21623XXSP,2013-05-09 15:20:00,
2013-05-09 11:25:00,67.7,59.3,30.02,SW,225,2.2,2.2,74,0.00,,,0.00,WUHU21623XXSP,2013-05-09 15:25:00,
2013-05-09 11:30:00,67.7,59.3,30.02,SSE,157,0.0,2.2,74,0.00,,,0.00,WUHU21623XXSP,2013-05-09 15:30:00,
2013-05-09 11:35:00,67.5,59.0,30.02,SW,225,0.0,0.0,74,0.00,,,0.00,WUHU21623XXSP,2013-05-09 15:35:00,
2013-05-09 11:40:00,67.4,58.9,30.03,SW,225,0.0,0.0,74,0.00,,,0.00,WUHU21623XXSP,2013-05-09 15:40:00,
2013-05-09 11:45:00,67.6,58.8,30.02,SSE,157,0.0,0.0,73,0.00,,,0.00,WUHU21623XXSP,2013-05-09 15:45:00,
2013-05-09 11:50:00,67.5,58.7,30.02,South,180,2.2,2.2,73,0.00,,,0.00,WUHU21623XXSP,2013-05-09 15:50:00,
2013-05-09 11:55:00,67.9,58.7,30.02,WSW,247,0.0,2.2,72,0.00,,,0.00,WUHU21623XXSP,2013-05-09 15:55:00,
2013-05-09 12:00:00,67.7,58.1,30.02,West,270,0.0,2.2,71,0.00,,,0.00,WUHU21623XXSP,2013-05-09 16:00:00,
2013-05-09 12:05:00,68.2,57.4,30.02,West,270,0.0,0.0,68,0.00,,,0.00,WUHU21623XXSP,2013-05-09 16:05:00,
2013-05-09 12:10:00,68.2,57.9,30.02,SW,225,0.0,0.0,69,0.00,,,0.00,WUHU21623XXSP,2013-05-09 16:10:00,
2013-05-09 12:15:00,68.2,57.8,30.02,NW,315,0.4,0.4,69,0.00,,,0.00,WUHU21623XXSP,2013-05-09 16:15:00,
2013-05-09 12:20:00,68.2,57.0,30.02,NW,315,0.0,0.4,67,0.00,,,0.00,WUHU21623XXSP,2013-05-09 16:20:00,
2013-05-09 12:25:00,68.2,57.0,30.02,SW,225,0.9,0.9,67,0.00,,,0.00,WUHU21623XXSP,2013-05-09 16:25:00,
2013-05-09 12:30:00,68.2,56.6,30.02,WNW,292,0.0,0.9,66,0.00,,,0.00,WUHU21623XXSP,2013-05-09 16:30:00,
2013-05-09 12:35:00,68.2,56.2,30.02,WSW,247,0.0,0.9,65,0.00,,,0.00,WUHU21623XXSP,2013-05-09 16:35:00,
2013-05-09 12:40:00,68.5,55.6,30.02,NNW,337,0.4,0.4,63,0.00,,,0.00,WUHU21623XXSP,2013-05-09 16:40:00,
2013-05-09 12:45:00,68.5,54.7,30.02,NW,315,2.5,3.1,61,0.00,,,0.00,WUHU21623XXSP,2013-05-09 16:45:00,
2013-05-09 12:50:00,68.9,55.1,30.01,NNW,337,0.0,3.1,61,0.00,,,0.00,WUHU21623XXSP,2013-05-09 16:50:00,
2013-05-09 12:55:00,68.9,54.1,30.01,WSW,247,0.0,0.0,59,0.00,,,0.00,WUHU21623XXSP,2013-05-09 16:55:00,
2013-05-09 13:00:00,68.9,53.7,30.01,SW,225,0.0,0.4,58,0.00,,,0.00,WUHU21623XXSP,2013-05-09 17:00:00,
2013-05-09 13:05:00,68.8,54.0,30.01,NNW,337,1.1,2.2,59,0.00,,,0.00,WUHU21623XXSP,2013-05-09 17:05:00,
2013-05-09 13:10:00,68.6,53.4,30.01,SW,225,0.0,2.2,58,0.00,,,0.00,WUHU21623XXSP,2013-05-09 17:10:00,
2013-05-09 13:15:00,68.9,53.2,30.01,NNW,337,0.0,0.0,57,0.00,,,0.00,WUHU21623XXSP,2013-05-09 17:15:00,
2013-05-09 13:20:00,68.8,52.6,30.01,SSW,202,3.6,3.6,56,0.00,,,0.00,WUHU21623XXSP,2013-05-09 17:20:00,
2013-05-09 13:25:00,69.0,53.3,30.00,NW,315,0.0,3.6,57,0.00,,,0.00,WUHU21623XXSP,2013-05-09 17:25:00,
2013-05-09 13:30:00,69.1,53.4,30.00,NW,315,0.0,3.6,57,0.00,,,0.00,WUHU21623XXSP,2013-05-09 17:30:00,
2013-05-09 13:35:00,69.5,52.7,30.00,NW,315,2.3,2.9,55,0.00,,,0.00,WUHU21623XXSP,2013-05-09 17:35:00,
2013-05-09 13:40:00,69.7,52.9,30.00,WNW,292,1.1,2.9,55,0.00,,,0.00,WUHU21623XXSP,2013-05-09 17:40:00,
2013-05-09 13:45:00,69.7,52.9,30.00,North,0,2.5,2.5,55,0.00,,,0.00,WUHU21623XXSP,2013-05-09 17:45:00,
2013-05-09 13:50:00,69.3,52.1,30.00,NW,315,1.1,2.5,54,0.00,,,0.00,WUHU21623XXSP,2013-05-09 17:50:00,
2013-05-09 13:55:00,69.3,52.1,30.00,West,270,0.0,2.5,54,0.00,,,0.00,WUHU21623XXSP,2013-05-09 17:55:00,
2013-05-09 14:00:00,68.7,51.5,30.00,SW,225,0.0,3.1,54,0.00,,,0.00,WUHU21623XXSP,2013-05-09 18:00:00,
2013-05-09 14:05:00,68.7,51.5,30.00,West,270,0.0,3.1,54,0.00,,,0.00,WUHU21623XXSP,2013-05-09 18:05:00,
2013-05-09 14:10:00,68.7,51.5,30.00,West,270,0.0,0.0,54,0.00,,,0.00,WUHU21623XXSP,2013-05-09 18:10:00,
2013-05-09 14:15:00,69.0,51.7,29.99,WSW,247,0.0,0.0,54,0.00,,,0.00,WUHU21623XXSP,2013-05-09 18:15:00,
2013-05-09 14:20:00,69.0,51.3,29.99,SW,225,0.7,1.1,53,0.00,,,0.00,WUHU21623XXSP,2013-05-09 18:20:00,
2013-05-09 14:25:00,69.1,50.8,29.99,South,180,0.0,1.1,52,0.00,,,0.00,WUHU21623XXSP,2013-05-09 18:25:00,
2013-05-09 14:30:00,69.5,50.1,29.99,West,270,0.9,0.9,50,0.00,,,0.00,WUHU21623XXSP,2013-05-09 18:30:00,
2013-05-09 14:35:00,69.6,50.2,29.99,West,270,0.0,0.9,50,0.00,,,0.00,WUHU21623XXSP,2013-05-09 18:35:00,
2013-05-09 14:40:00,69.5,50.1,29.99,SW,225,0.0,0.9,50,0.00,,,0.00,WUHU21623XXSP,2013-05-09 18:40:00,
2013-05-09 14:45:00,69.2,49.9,29.99,WSW,247,0.0,0.0,50,0.00,,,0.00,WUHU21623XXSP,2013-05-09 18:45:00,
2013-05-09 14:50:00,69.1,49.7,29.99,West,270,1.3,1.3,50,0.00,,,0.00,WUHU21623XXSP,2013-05-09 18:50:00,
2013-05-09 14:55:00,68.8,49.5,29.99,SSW,202,0.0,1.3,50,0.00,,,0.00,WUHU21623XXSP,2013-05-09 18:55:00,
2013-05-09 15:00:00,68.8,50.0,29.99,WSW,247,0.0,1.3,51,0.00,,,0.00,WUHU21623XXSP,2013-05-09 19:00:00,
2013-05-09 15:05:00,68.9,50.6,29.99,WSW,247,0.0,0.0,52,0.00,,,0.00,WUHU21623XXSP,2013-05-09 19:05:00,
2013-05-09 15:10:00,68.6,50.3,29.98,WSW,247,0.0,0.0,52,0.00,,,0.00,WUHU21623XXSP,2013-05-09 19:10:00,
2013-05-09 15:15:00,68.6,50.9,29.98,WSW,247,0.0,0.0,53,0.00,,,0.00,WUHU21623XXSP,2013-05-09 19:15:00,
2013-05-09 15:20:00,68.6,50.8,29.98,WSW,247,0.0,0.0,53,0.00,,,0.00,WUHU21623XXSP,2013-05-09 19:20:00,
2013-05-09 15:25:00,68.8,51.6,29.98,NNW,337,1.1,1.1,54,0.00,,,0.00,WUHU21623XXSP,2013-05-09 19:25:00,
2013-05-09 15:30:00,68.9,51.7,29.98,North,0,0.7,2.9,54,0.00,,,0.00,WUHU21623XXSP,2013-05-09 19:30:00,
2013-05-09 15:35:00,69.1,52.4,29.98,NW,315,4.0,4.0,55,0.00,,,0.00,WUHU21623XXSP,2013-05-09 19:35:00,
2013-05-09 15:40:00,68.7,53.0,29.98,NW,315,1.8,4.0,57,0.00,,,0.00,WUHU21623XXSP,2013-05-09 19:40:00,
2013-05-09 15:45:00,68.7,53.0,29.99,NW,315,0.0,4.0,57,0.00,,,0.00,WUHU21623XXSP,2013-05-09 19:45:00,
2013-05-09 15:50:00,69.0,54.7,29.99,WNW,292,1.8,3.8,60,0.00,,,0.00,WUHU21623XXSP,2013-05-09 19:50:00,
2013-05-09 15:55:00,69.2,55.3,29.98,West,270,1.8,3.8,61,0.00,,,0.00,WUHU21623XXSP,2013-05-09 19:55:00,
2013-05-09 16:00:00,69.2,55.8,29.98,WNW,292,0.0,4.3,62,0.00,,,0.00,WUHU21623XXSP,2013-05-09 20:00:00,
2013-05-09 16:05:00,69.3,55.9,29.98,WSW,247,2.9,4.3,62,0.00,,,0.00,WUHU21623XXSP,2013-05-09 20:05:00,
2013-05-09 16:10:00,69.4,56.0,29.98,West,270,1.3,2.9,62,0.00,,,0.00,WUHU21623XXSP,2013-05-09 20:10:00,
2013-05-09 16:15:00,69.1,55.8,29.99,West,270,3.1,3.8,62,0.00,,,0.00,WUHU21623XXSP,2013-05-09 20:15:00,
2013-05-09 16:20:00,69.0,55.6,29.98,NNW,337,0.0,3.8,62,0.00,,,0.00,WUHU21623XXSP,2013-05-09 20:20:00,
2013-05-09 16:25:00,69.3,55.9,29.98,WNW,292,0.7,3.1,62,0.00,,,0.00,WUHU21623XXSP,2013-05-09 20:25:00,
2013-05-09 16:30:00,69.4,56.5,29.98,NNW,337,0.0,0.7,63,0.00,,,0.00,WUHU21623XXSP,2013-05-09 20:30:00,
2013-05-09 16:35:00,69.6,56.7,29.98,WNW,292,2.0,2.0,63,0.00,,,0.00,WUHU21623XXSP,2013-05-09 20:35:00,
2013-05-09 16:40:00,69.7,56.7,29.97,WNW,292,0.0,2.0,63,0.00,,,0.00,WUHU21623XXSP,2013-05-09 20:40:00,
2013-05-09 16:45:00,70.0,57.0,29.97,WNW,292,0.0,0.0,63,0.00,,,0.00,WUHU21623XXSP,2013-05-09 20:45:00,
2013-05-09 16:50:00,70.1,57.6,29.97,SW,225,1.1,1.1,64,0.00,,,0.00,WUHU21623XXSP,2013-05-09 20:50:00,
2013-05-09 16:55:00,70.4,57.9,29.98,West,270,0.0,1.1,64,0.00,,,0.00,WUHU21623XXSP,2013-05-09 20:55:00,
2013-05-09 17:00:00,70.5,57.7,29.98,West,270,0.0,0.0,64,0.00,,,0.00,WUHU21623XXSP,2013-05-09 21:00:00,
2013-05-09 17:05:00,70.5,57.7,29.98,SSW,202,0.0,0.0,64,0.00,,,0.00,WUHU21623XXSP,2013-05-09 21:05:00,
2013-05-09 17:10:00,70.3,57.1,29.98,WSW,247,0.0,0.0,63,0.00,,,0.00,WUHU21623XXSP,2013-05-09 21:10:00,
2013-05-09 17:15:00,70.2,57.0,29.98,SSW,202,0.0,0.0,63,0.00,,,0.00,WUHU21623XXSP,2013-05-09 21:15:00,
2013-05-09 17:20:00,70.0,56.4,29.97,SW,225,0.0,0.0,62,0.00,,,0.00,WUHU21623XXSP,2013-05-09 21:20:00,
2013-05-09 17:25:00,69.8,56.6,29.97,SW,225,0.0,0.0,63,0.00,,,0.00,WUHU21623XXSP,2013-05-09 21:25:00,
2013-05-09 17:30:00,69.6,56.5,29.97,SW,225,0.0,0.0,63,0.00,,,0.00,WUHU21623XXSP,2013-05-09 21:30:00,
2013-05-09 17:35:00,69.6,56.5,29.98,SW,225,0.0,0.0,63,0.00,,,0.00,WUHU21623XXSP,2013-05-09 21:35:00,
2013-05-09 17:40:00,69.6,56.5,29.98,WSW,247,0.0,0.0,63,0.00,,,0.00,WUHU21623XXSP,2013-05-09 21:40:00,
2013-05-09 17:45:00,69.4,56.3,29.98,WSW,247,0.0,0.0,63,0.00,,,0.00,WUHU21623XXSP,2013-05-09 21:45:00,
2013-05-09 17:50:00,69.3,56.5,29.98,WSW,247,0.0,0.0,64,0.00,,,0.00,WUHU21623XXSP,2013-05-09 21:50:00,
2013-05-09 17:55:00,69.1,56.4,29.98,WSW,247,0.0,0.0,64,0.00,,,0.00,WUHU21623XXSP,2013-05-09 21:55:00,
2013-05-09 18:00:00,68.9,56.2,29.99,SSW,202,0.0,0.0,64,0.00,,,0.00,WUHU21623XXSP,2013-05-09 22:00:00,
2013-05-09 18:05:00,68.9,56.2,29.99,SE,135,1.1,1.1,64,0.00,,,0.00,WUHU21623XXSP,2013-05-09 22:05:00,
2013-05-09 18:10:00,68.5,55.8,29.99,WSW,247,0.0,1.1,64,0.00,,,0.00,WUHU21623XXSP,2013-05-09 22:10:00,
2013-05-09 18:15:00,68.4,55.7,29.99,WNW,292,0.0,1.1,64,0.00,,,0.00,WUHU21623XXSP,2013-05-09 22:15:00,
2013-05-09 18:20:00,67.8,55.1,29.98,SW,225,0.0,0.0,64,0.00,,,0.00,WUHU21623XXSP,2013-05-09 22:20:00,
2013-05-09 18:25:00,67.6,55.0,29.98,SW,225,0.0,0.0,64,0.00,,,0.00,WUHU21623XXSP,2013-05-09 22:25:00,
2013-05-09 18:30:00,67.3,55.1,29.99,SW,225,0.0,0.0,65,0.00,,,0.00,WUHU21623XXSP,2013-05-09 22:30:00,
2013-05-09 18:35:00,66.9,55.1,29.99,NW,315,0.0,0.0,66,0.00,,,0.00,WUHU21623XXSP,2013-05-09 22:35:00,
2013-05-09 18:40:00,66.7,55.4,30.00,South,180,0.0,0.0,67,0.00,,,0.00,WUHU21623XXSP,2013-05-09 22:40:00,
2013-05-09 18:45:00,66.0,54.7,30.00,SSE,157,4.9,4.9,67,0.02,,,0.02,WUHU21623XXSP,2013-05-09 22:45:00,
2013-05-09 18:50:00,65.8,54.5,29.99,SW,225,0.0,4.9,67,0.02,,,0.02,WUHU21623XXSP,2013-05-09 22:50:00,
2013-05-09 18:55:00,65.5,54.6,30.00,SW,225,0.0,0.0,68,0.02,,,0.02,WUHU21623XXSP,2013-05-09 22:55:00,
2013-05-09 19:00:00,64.6,55.0,29.99,ESE,112,0.0,0.0,71,0.02,,,0.02,WUHU21623XXSP,2013-05-09 23:00:00,
2013-05-09 19:05:00,64.0,54.9,29.99,ESE,112,0.0,0.0,72,0.02,,,0.02,WUHU21623XXSP,2013-05-09 23:05:00,
2013-05-09 19:10:00,63.5,54.7,29.98,SSE,157,0.0,0.0,73,0.04,,,0.04,WUHU21623XXSP,2013-05-09 23:10:00,
2013-05-09 19:15:00,63.1,54.7,29.98,SSE,157,0.0,0.0,74,0.04,,,0.04,WUHU21623XXSP,2013-05-09 23:15:00,
2013-05-09 19:20:00,62.8,54.7,29.98,SSE,157,0.0,0.0,75,0.06,,,0.06,WUHU21623XXSP,2013-05-09 23:20:00,
2013-05-09 19:25:00,62.4,54.3,29.98,SSE,157,0.0,0.0,75,0.06,,,0.06,WUHU21623XXSP,2013-05-09 23:25:00,
2013-05-09 19:30:00,62.2,54.5,29.98,SE,135,0.0,0.0,76,0.06,,,0.06,WUHU21623XXSP,2013-05-09 23:30:00,
2013-05-09 19:35:00,62.2,54.5,29.98,SE,135,0.0,0.0,76,0.06,,,0.06,WUHU21623XXSP,2013-05-09 23:35:00,
2013-05-09 19:40:00,62.1,54.4,29.97,SE,135,0.0,0.0,76,0.06,,,0.06,WUHU21623XXSP,2013-05-09 23:40:00,
2013-05-09 19:45:00,62.2,54.5,29.97,SE,135,0.0,0.0,76,0.04,,,0.06,WUHU21623XXSP,2013-05-09 23:45:00,
2013-05-09 19:50:00,62.1,54.7,29.96,SE,135,0.0,0.0,77,0.04,,,0.06,WUHU21623XXSP,2013-05-09 23:50:00,
2013-05-09 19:55:00,61.9,54.6,29.95,SE,135,0.0,0.0,77,0.04,,,0.06,WUHU21623XXSP,2013-05-09 23:55:00,
2013-05-09 20:00:00,62.1,54.7,29.95,SE,135,0.0,0.0,77,0.04,,,0.06,WUHU21623XXSP,2013-05-10 00:00:00,
2013-05-09 20:05:00,61.9,54.9,29.95,SE,135,0.0,0.0,78,0.04,,,0.06,WUHU21623XXSP,2013-05-10 00:05:00,
2013-05-09 20:10:00,61.9,54.9,29.95,SE,135,0.0,0.0,78,0.02,,,0.06,WUHU21623XXSP,2013-05-10 00:10:00,
2013-05-09 20:15:00,61.9,54.9,29.95,SE,135,0.0,0.0,78,0.02,,,0.06,WUHU21623XXSP,2013-05-10 00:15:00,
2013-05-09 20:20:00,61.9,54.9,29.95,SE,135,0.0,0.0,78,0.00,,,0.06,WUHU21623XXSP,2013-05-10 00:20:00,
2013-05-09 20:25:00,61.9,54.9,29.95,SE,135,0.0,0.0,78,0.00,,,0.06,WUHU21623XXSP,2013-05-10 00:25:00,
2013-05-09 20:30:00,61.9,54.9,29.94,SE,135,0.0,0.0,78,0.00,,,0.06,WUHU21623XXSP,2013-05-10 00:30:00,
2013-05-09 20:35:00,61.9,55.3,29.94,SE,135,0.0,0.0,79,0.00,,,0.06,WUHU21623XXSP,2013-05-10 00:35:00,
2013-05-09 20:40:00,61.7,54.8,29.94,SE,135,0.0,0.0,78,0.00,,,0.06,WUHU21623XXSP,2013-05-10 00:40:00,
2013-05-09 20:45:00,61.7,55.1,29.94,SE,135,0.0,0.0,79,0.00,,,0.06,WUHU21623XXSP,2013-05-10 00:45:00,
2013-05-09 20:50:00,61.7,55.1,29.94,SE,135,0.0,0.0,79,0.00,,,0.06,WUHU21623XXSP,2013-05-10 00:50:00,
2013-05-09 20:55:00,61.7,55.1,29.94,SE,135,0.0,0.0,79,0.00,,,0.06,WUHU21623XXSP,2013-05-10 00:55:00,
2013-05-09 21:00:00,61.7,55.1,29.94,SE,135,0.0,0.0,79,0.00,,,0.06,WUHU21623XXSP,2013-05-10 01:00:00,
2013-05-09 21:05:00,61.9,55.3,29.94,SSE,157,0.0,0.0,79,0.00,,,0.06,WUHU21623XXSP,2013-05-10 01:05:00,
2013-05-09 21:10:00,61.9,55.3,29.94,SSE,157,0.0,0.0,79,0.00,,,0.06,WUHU21623XXSP,2013-05-10 01:10:00,
2013-05-09 21:15:00,61.9,55.3,29.94,South,180,0.0,0.0,79,0.00,,,0.06,WUHU21623XXSP,2013-05-10 01:15:00,
2013-05-09 21:20:00,61.7,55.1,29.93,South,180,0.0,0.0,79,0.00,,,0.06,WUHU21623XXSP,2013-05-10 01:20:00,
2013-05-09 21:25:00,61.7,55.1,29.93,South,180,0.0,0.0,79,0.00,,,0.06,WUHU21623XXSP,2013-05-10 01:25:00,
2013-05-09 21:30:00,61.7,55.1,29.94,South,180,0.0,0.0,79,0.00,,,0.06,WUHU21623XXSP,2013-05-10 01:30:00,
2013-05-09 21:35:00,61.7,55.1,29.93,South,180,0.0,0.0,79,0.00,,,0.06,WUHU21623XXSP,2013-05-10 01:35:00,
2013-05-09 21:40:00,61.7,55.1,29.94,South,180,0.0,0.0,79,0.00,,,0.06,WUHU21623XXSP,2013-05-10 01:40:00,
2013-05-09 21:45:00,61.5,55.3,29.94,South,180,0.0,0.0,80,0.00,,,0.06,WUHU21623XXSP,2013-05-10 01:45:00,
2013-05-09 21:50:00,61.5,55.3,29.94,South,180,0.0,0.0,80,0.00,,,0.06,WUHU21623XXSP,2013-05-10 01:50:00,
2013-05-09 21:55:00,61.5,55.3,29.94,South,180,0.0,0.0,80,0.00,,,0.06,WUHU21623XXSP,2013-05-10 01:55:00,
2013-05-09 22:00:00,61.5,55.7,29.95,South,180,0.0,0.0,81,0.00,,,0.06,WUHU21623XXSP,2013-05-10 02:00:00,
2013-05-09 22:05:00,61.5,55.7,29.95,South,180,0.0,0.0,81,0.00,,,0.06,WUHU21623XXSP,2013-05-10 02:05:00,
2013-05-09 22:10:00,61.5,55.7,29.95,South,180,0.0,0.0,81,0.00,,,0.06,WUHU21623XXSP,2013-05-10 02:10:00,
2013-05-09 22:15:00,61.5,55.7,29.95,South,180,0.0,0.0,81,0.00,,,0.06,WUHU21623XXSP,2013-05-10 02:15:00,
2013-05-09 22:20:00,61.5,55.7,29.94,South,180,0.0,0.0,81,0.00,,,0.06,WUHU21623XXSP,2013-05-10 02:20:00,
2013-05-09 22:25:00,61.5,55.7,29.95,South,180,0.0,0.0,81,0.00,,,0.06,WUHU21623XXSP,2013-05-10 02:25:00,
2013-05-09 22:30:00,61.5,55.7,29.95,South,180,0.0,0.0,81,0.00,,,0.06,WUHU21623XXSP,2013-05-10 02:30:00,
2013-05-09 22:35:00,61.5,55.7,29.95,South,180,0.0,0.0,81,0.02,,,0.08,WUHU21623XXSP,2013-05-10 02:35:00,
2013-05-09 22:40:00,61.3,55.5,29.95,South,180,0.0,0.0,81,0.02,,,0.08,WUHU21623XXSP,2013-05-10 02:40:00,
2013-05-09 22:45:00,61.3,55.8,29.95,South,180,0.0,0.0,82,0.02,,,0.08,WUHU21623XXSP,2013-05-10 02:45:00,
2013-05-09 22:50:00,61.2,56.0,29.94,SSE,157,0.0,0.0,83,0.02,,,0.08,WUHU21623XXSP,2013-05-10 02:50:00,
2013-05-09 22:55:00,61.0,55.8,29.94,South,180,0.0,0.0,83,0.02,,,0.08,WUHU21623XXSP,2013-05-10 02:55:00,
2013-05-09 23:00:00,61.0,55.8,29.93,South,180,0.0,0.0,83,0.02,,,0.08,WUHU21623XXSP,2013-05-10 03:00:00,
2013-05-09 23:05:00,61.0,55.8,29.94,SSE,157,0.0,0.0,83,0.04,,,0.10,WUHU21623XXSP,2013-05-10 03:05:00,
2013-05-09 23:10:00,60.6,55.8,29.94,SSE,157,1.6,1.6,84,0.04,,,0.10,WUHU21623XXSP,2013-05-10 03:10:00,
2013-05-09 23:15:00,60.6,55.8,29.93,SSE,157,0.0,1.6,84,0.04,,,0.10,WUHU21623XXSP,2013-05-10 03:15:00,
2013-05-09 23:20:00,60.6,55.8,29.93,SSE,157,0.0,0.0,84,0.04,,,0.10,WUHU21623XXSP,2013-05-10 03:20:00,
2013-05-09 23:25:00,60.6,55.8,29.92,SE,135,0.0,0.0,84,0.04,,,0.10,WUHU21623XXSP,2013-05-10 03:25:00,
2013-05-09 23:30:00,60.4,55.6,29.92,SSE,157,0.0,0.0,84,0.04,,,0.10,WUHU21623XXSP,2013-05-10 03:30:00,
2013-05-09 23:35:00,60.4,55.6,29.92,South,180,3.8,3.8,84,0.06,,,0.14,WUHU21623XXSP,2013-05-10 03:35:00,
2013-05-09 23:40:00,60.4,55.6,29.92,ESE,112,0.0,3.8,84,0.06,,,0.14,WUHU21623XXSP,2013-05-10 03:40:00,
2013-05-09 23:45:00,60.1,55.6,29.92,ESE,112,0.0,0.0,85,0.08,,,0.16,WUHU21623XXSP,2013-05-10 03:45:00,
2013-05-09 23:50:00,60.1,55.6,29.91,SSW,202,0.0,0.0,85,0.08,,,0.16,WUHU21623XXSP,2013-05-10 03:50:00,
2013-05-09 23:55:00,60.1,55.6,29.91,North,0,0.0,0.0,85,0.08,,,0.16,WUHU21623XXSP,2013-05-10 03:55:00,